Lexington Weather

Lexington, Massachusetts, USA

67°F
9/23/2021 4:02am 
  • Lexington Conditions: Mostly cloudy
  • Temperature: 66.6°F / 19.2°CWarmer 0.4°F than last hour.
  • Dew Point: 65.3°FIncreased 0.5°Fsince last hour.
  • Relative Humidity: 96%Increased 1.0% since last hour.
  • Wind: Calm, 10-min avg: Calm, gust: None
  • Barometer: 30.04 in Steady
  • Visibility: 10 miles
  • Rain Today: 0.00 in
  •   

Regional Weather Roundup
for Boston / Norton, MA

        
000
ASUS41 KBOX 190804
RWRBOX

REGIONAL WEATHER ROUNDUP
NATIONAL WEATHER SERVICE BOSTON/NORTON MA
400 AM EDT SUN SEP 19 2021

NOTE:  "FAIR" INDICATES FEW OR NO CLOUDS BELOW 12,000 FEET WITH NO 
SIGNIFICANT WEATHER AND/OR OBSTRUCTIONS TO VISIBILITY.

MAZALL-190900-
EASTERN MASSACHUSETTS
  
CITY           SKY/WX    TMP DP  RH WIND       PRES   REMARKS
BOSTON         CLOUDY    68  63  84 N8        30.02F                  
BEVERLY        CLOUDY    65  62  90 N8        30.02S                  
LAWRENCE       CLOUDY    64  62  93 N6        30.06R                  
BEDFORD        MOCLDY    63  61  93 NW3       30.03R                  
BLUE HILL      NOT AVBL                                               
NORWOOD        LGT RAIN  67  64  90 N5        30.02S                  
MARSHFIELD     CLOUDY    66  64  94 VRB6G18   30.00S                  
PLYMOUTH       CLOUDY    66  64  93 N8        30.00S                  
TAUNTON        MOCLDY    66  65  96 CALM      30.01R                  
NEW BEDFORD    CLOUDY    67  66  97 N5        29.99S                  
$$

MAZALL-190900-
CAPE COD AND THE ISLANDS
  
CITY           SKY/WX    TMP DP  RH WIND       PRES   REMARKS
FALMOUTH       MOCLDY    64  64 100 N8        29.99S                  
HYANNIS        CLOUDY    68  66  93 N9G18     29.97S                  
CHATHAM        CLOUDY    67  65  93 VRB5      29.98S                  
PROVINCETOWN   CLOUDY    64  62  93 N14G21    29.99F                  
NANTUCKET      PTCLDY    69  65  86 N13       29.97S                  
MARTHAS VNYRD  MOCLDY    66  66 100 N8        29.99R                  
$$
 
MAZALL-190900-
CENTRAL AND WESTERN MASSACHUSETTS
  
CITY           SKY/WX    TMP DP  RH WIND       PRES   REMARKS
WORCESTER      CLOUDY    63  51  65 NW9       30.06S                  
FITCHBURG      CLOUDY    63  58  83 N6        30.06R                  
ORANGE         CLEAR     57  54  89 NW3       30.09R                  
SPRINGFIELD    CLEAR     62  53  73 N6        30.06R                  
WESTFIELD      CLEAR     61  58  90 NW5       30.07S                  
NORTH ADAMS    PTCLDY    55  52  89 NW6       30.12S                  
PITTSFIELD     PTCLDY    54  51  90 W5        30.11R                  
$$
 
RIZALL-190900-
RHODE ISLAND
  
CITY           SKY/WX    TMP DP  RH WIND       PRES   REMARKS
PROVIDENCE     CLOUDY    69  66  90 N12       30.02S                  
NEWPORT        CLOUDY    66  66 100 N9        30.00S                  
BLOCK ISLAND   MOCLDY    66  64  93 N7        30.01S                  
SMITHFIELD     CLOUDY    65  64  97 N9        30.04S                  
WESTERLY       CLEAR     64  64 100 N6        30.01S                  
$$
 
CTZALL-190900-
CONNECTICUT
  
CITY           SKY/WX    TMP DP  RH WIND       PRES   REMARKS
BRADLEY INTL   PTCLDY    63  59  87 N8        30.07R                  
HARTFORD       CLEAR     67  57  70 N8        30.06R                  
BRIDGEPORT     CLEAR     68  60  75 NW7       30.05R                  
DANBURY        CLEAR     65  55  70 VRB3      30.10R                  
GROTON         CLEAR     67  64  90 N7        30.01S                  
NEW HAVEN      CLEAR     69  63  81 N5        30.05R                  
CHESTER        FAIR      66  63  88 N10       30.04S                  
MERIDEN        CLEAR     66  59  78 NW8       30.06R                  
WILLIMANTIC    PTCLDY    65  62  90 N3        30.04S                  
OXFORD         CLEAR     62  58  86 MISG      30.08S                  
$$

MEZ002-015-021-024-NHZ003-005-008-011-012-014-VTZ005-008-190900-
NORTHERN NEW ENGLAND
  
CITY           SKY/WX    TMP DP  RH WIND       PRES   REMARKS
PORTLAND ME    CLEAR     57  55  93 N8        30.05R                  
BANGOR ME      CLEAR     54  48  80 N10       30.05F                  
CONCORD NH     PTCLDY    58  51  78 N6        30.07S                  
MANCHESTER NH  PTCLDY    64  51  62 NW7       30.04R                  
NASHUA NH      CLOUDY    61  60  97 NW6       30.06R                  
PORTSMOUTH NH  MOCLDY    61  56  85 N7        30.04S                  
JAFFREY NH     PTCLDY    55  53  93 CALM      30.09R                  
KEENE NH       CLEAR     54  54 100 CALM      30.10R                  
BURLINGTON VT  CLEAR     51  49  92 CALM      30.15R                  
MT. WASHINGTON MOCLDY    41   7  24 N14         N/A                   
$$

NYZ052-076-190900-
EASTERN NEW YORK
  
CITY           SKY/WX    TMP DP  RH WIND       PRES   REMARKS
ALBANY         PTCLDY    55  55 100 N3        30.13S                  
NEW YORK CITY  PTCLDY    70  57  63 N18       30.06S                  
$$
 
ANZALL-190900-
MARINE OBSERVATIONS
  
STATION/POSITION TIME  TEMP    WIND        PRES    VSBY  WAVE
                       AIR SEA DIR/SP/G                  HT/PER
                 (UTC) (F)     (DEG/KT/KT) (MB)    (MI)  (FT/S)
BOSTON BUOY      0740      66   20/ 16/ 19 1016.7S
BUZZARDS BAY     0700          340/ 10/ 11 1016.5F
NANTUCKET SOUND  0740   70 72  350/ 16/ 17 1014.8F
MASS BAY-STELLWA 0704   66      20/ 17/ 21 1015.8R  1 7/8  6/11
ISLE OF SHOALS   0700   65      10/ 15/ 16 1016.0F
S OF BLOCK IS    0726      71                N/A           5/10
$$

......................KEY.........................
  SKY/WX - SKY CONDITION/PRESENT WEATHER
  TMP    - TEMPERATURE IN FAHRENHEIT
  DWPT   - DEWPOINT IN FAHRENHEIT
  RH     - RELATIVE HUMIDITY IN PERCENT
  WIND   - DIRECTION AND SPEED IN MPH
  PRES   - MEAN SEA LEVEL PRESSURE IN INCHES OF HG
  WCI    - WIND CHILL INDEX
  VSB    - VISIBILITY IN MILES
  HX     - HEAT INDEX
  TC     - TEMPERATURE IN CELSIUS
  VRB    - VARIABLE WIND DIRECTION
  N/A    - NOT AVAILABLE
  
      

Other recent Regional Weather Roundups

Thu Sep 23, 3:04am

Thu Sep 23, 2:04am

Thu Sep 23, 1:04am

Thu Sep 23, 12:04am

Wed Sep 22, 11:04pm

Wed Sep 22, 10:04pm

Wed Sep 22, 9:04pm

Wed Sep 22, 8:04pm

Wed Sep 22, 7:04pm

Wed Sep 22, 6:04pm

Wed Sep 22, 5:04pm

Wed Sep 22, 4:04pm

Wed Sep 22, 3:04pm

Wed Sep 22, 2:04pm

Wed Sep 22, 1:04pm

Wed Sep 22, 12:05pm

Wed Sep 22, 11:04am

Wed Sep 22, 10:04am

Wed Sep 22, 9:04am

Wed Sep 22, 8:04am

Wed Sep 22, 7:04am

Wed Sep 22, 6:04am

Wed Sep 22, 5:04am

Wed Sep 22, 4:04am

Wed Sep 22, 3:04am

Wed Sep 22, 2:04am

Wed Sep 22, 1:04am

Wed Sep 22, 12:04am

Tue Sep 21, 11:04pm

Tue Sep 21, 10:04pm

Tue Sep 21, 9:04pm

Tue Sep 21, 8:04pm

Tue Sep 21, 7:04pm

Tue Sep 21, 6:04pm

Tue Sep 21, 5:04pm

Tue Sep 21, 4:04pm

Tue Sep 21, 3:04pm

Tue Sep 21, 2:04pm

Tue Sep 21, 1:04pm

Tue Sep 21, 12:04pm

Tue Sep 21, 11:04am

Tue Sep 21, 10:04am

Tue Sep 21, 9:04am

Tue Sep 21, 8:04am

Tue Sep 21, 7:04am

Tue Sep 21, 6:04am

Tue Sep 21, 5:04am

Tue Sep 21, 4:04am

Tue Sep 21, 3:04am

Tue Sep 21, 2:04am

Tue Sep 21, 1:04am

Tue Sep 21, 12:04am

Mon Sep 20, 11:04pm

Mon Sep 20, 10:04pm

Mon Sep 20, 9:04pm

Mon Sep 20, 8:04pm

Mon Sep 20, 7:04pm

Mon Sep 20, 6:04pm

Mon Sep 20, 5:04pm

Mon Sep 20, 4:04pm

Mon Sep 20, 3:04pm

Mon Sep 20, 2:04pm

Mon Sep 20, 1:04pm

Mon Sep 20, 12:04pm

Mon Sep 20, 11:04am

Mon Sep 20, 10:04am

Mon Sep 20, 9:04am

Mon Sep 20, 7:04am

Mon Sep 20, 6:04am

Mon Sep 20, 5:04am

Mon Sep 20, 4:04am

Mon Sep 20, 3:04am

Mon Sep 20, 2:04am

Mon Sep 20, 1:04am

Mon Sep 20, 12:04am

Sun Sep 19, 11:04pm

Sun Sep 19, 10:04pm

Sun Sep 19, 9:04pm

Sun Sep 19, 8:04pm

Sun Sep 19, 7:04pm

Sun Sep 19, 6:04pm

Sun Sep 19, 5:04pm

Sun Sep 19, 4:04pm

Sun Sep 19, 3:04pm

Sun Sep 19, 2:05pm

Sun Sep 19, 1:04pm

Sun Sep 19, 12:04pm

Sun Sep 19, 11:04am

Sun Sep 19, 10:05am

Sun Sep 19, 9:04am

Sun Sep 19, 8:04am

Sun Sep 19, 7:04am

Sun Sep 19, 6:04am

Sun Sep 19, 5:04am

Sun Sep 19, 3:04am

Sun Sep 19, 2:04am

Sun Sep 19, 1:04am

Sun Sep 19, 12:04am

Sat Sep 18, 11:05pm

Sat Sep 18, 10:04pm

Sat Sep 18, 9:04pm

Sat Sep 18, 8:04pm

Sat Sep 18, 7:04pm

Sat Sep 18, 6:04pm

Sat Sep 18, 5:04pm

Sat Sep 18, 4:04pm

Sat Sep 18, 3:04pm

Sat Sep 18, 2:04pm

Sat Sep 18, 1:04pm

Sat Sep 18, 12:04pm

Sat Sep 18, 11:04am

Sat Sep 18, 10:04am

Sat Sep 18, 9:04am

Sat Sep 18, 8:04am

Sat Sep 18, 7:04am

Sat Sep 18, 6:04am

Sat Sep 18, 5:04am

Sat Sep 18, 4:04am

Sat Sep 18, 3:04am

Sat Sep 18, 2:04am

Sat Sep 18, 1:04am

Sat Sep 18, 12:04am

Fri Sep 17, 11:04pm

Fri Sep 17, 10:04pm

Fri Sep 17, 9:04pm

Fri Sep 17, 8:04pm

Fri Sep 17, 7:04pm

Fri Sep 17, 6:04pm

Fri Sep 17, 5:04pm

Fri Sep 17, 4:04pm

Fri Sep 17, 3:04pm

Fri Sep 17, 2:04pm

Fri Sep 17, 1:04pm

Fri Sep 17, 12:05pm

Fri Sep 17, 11:04am

Fri Sep 17, 10:04am

Fri Sep 17, 9:04am

Fri Sep 17, 8:04am

Fri Sep 17, 7:04am

Fri Sep 17, 6:04am

Fri Sep 17, 5:04am

Fri Sep 17, 4:04am

Fri Sep 17, 3:04am

Fri Sep 17, 2:04am

Fri Sep 17, 1:04am

Fri Sep 17, 12:04am

Thu Sep 16, 11:04pm

Thu Sep 16, 10:04pm

Thu Sep 16, 9:04pm

Thu Sep 16, 8:04pm

Thu Sep 16, 7:04pm

Thu Sep 16, 6:04pm

Thu Sep 16, 5:04pm

Thu Sep 16, 4:04pm

Thu Sep 16, 3:04pm

Thu Sep 16, 2:04pm

Thu Sep 16, 1:05pm

Thu Sep 16, 12:04pm

Thu Sep 16, 11:05am

Thu Sep 16, 10:05am

Thu Sep 16, 9:04am

Thu Sep 16, 8:04am

Thu Sep 16, 7:04am

Thu Sep 16, 6:04am

Thu Sep 16, 5:04am

Thu Sep 16, 4:04am

Meta data:

ID: d8918538-b60c-4725-9ecc-51171978e1cd
Link: https://api.weather.gov/products/d8918538-b60c-4725-9ecc-51171978e1cd